Location: *
(46.1333°S, 161.2167°W)
Time: 04:38:21
(UTC+00:00)

CZ-4C R/B - Pass Details

Date: 15 July 2020
Orbit: 632 x 1370 km, 63.4° (Epoch: 10 August)

Event Time Altitude Azimuth Distance (km) Brightness Sun altitude
Exits shadow 17:20:14 - 225° (SW) 2,974 4.5 -10.4°
Reaches altitude 10° 17:20:31 10° 223° (SW) 2,908 4.4 -10.3°
Maximum altitude 17:24:38 16° 186° (S) 2,305 4.2 -9.7°
Drops below altitude 10° 17:28:21 10° 147° (SSE) 2,582 4.9 -9.1°
Sets 17:31:43 0° 126° (SE) 3,376 5.8 -8.5°
